www.pogodaiklimat.ru

Погода и климат >> Архив погоды >> Россия >> Камчатский край >> Соболево


АРХИВ ПОГОДЫ в Соболево

Время (UTC), дата Ветер
(напр.,м/с)
 
Видим.   Явления Облачность Т
(С)
Тd
(С)
f
(%)
Тe
(С)
Тes
(С)
Комфортность P
(гПа)
Po
(гПа)
Тmin
(С)
Tmax
(С)
R
(мм)
R24
(мм)
S
(см)
03 17.02 Ю 1 20 км 8/4 600 м
[Sc diur, vesp Ac trans Ci fib]
-7.5 -12.5 67 -10 -8 991.1 987.9
06 17.02 Ю 2 20 км 8/6 600 м
[Sc Ac trans]
-10.4 -13.5 78 -15 -15 991.8 988.6
09 17.02 ЮВ 2 20 км 6/0
[Ac As]
-7.4 -17.1 46 -11 -11 993.2 989.9
12 17.02 ЮВ 3 10 км в посл. час ливневой снег 8/8 600 м
[Sc]
-13.4 -15.2 86 -20 -20 994.3 991.0
15 17.02 ЮВ 3 20 км 8/3 600 м
[Sc Ac As]
-14.8 -17.2 82 -21 -21 995.0 991.7
18 17.02 ЮВ 3 20 км 6/0
[Ac As]
-15.7 -18.4 80 -22 -22 995.6 992.3
21 17.02 ЮВ 3 20 км 6/3 600 м
[Sc Ac trans]
-14.6 -18.3 73 -21 -21 996.7 993.4 -15.7 0.6 87
00 18.02 ЮВ 3 50 км 10/0
[Ac und]
-10.8 -16.1 65 -17 -16 998.2 995.0
03 18.02 Ю 4 4000 м слаб. ливневой снег 10/10 300 м
[Cb cap]
-8.0 -12.0 73 -15 -15 998.8 995.6
06 18.02 Ю 1 20 км {ливн. осадки} 6/4 600 м
[Sc Ac trans]
-8.5 -11.0 82 -11 -11 1000.4 997.2
09 18.02 Ю 1 10 км 6/6 600 м
[Sc]
-13.3 -15.1 86 -16 -16 1002.0 998.7 -7.7 0.2
12 18.02 ЮВ 2 20 км 4/0
[Ac trans]
-14.6 -16.4 86 -20 -20 1003.7 1000.4
15 18.02 Ю 3 10 км 10/10 600 м
[Sc]
-10.7 -12.4 87 -17 -17 1004.6 1001.3
18 18.02 Ю 2 4000 м 10/10 300 м
[Cb cap]
-9.7 -11.0 90 -14 -14 1005.7 1002.5
21 18.02 ЮВ 3 4000 м слаб. ливневой снег 10/10 300 м
[Cb cap]
-9.8 -11.1 90 -16 -16 1007.3 1004.0 -14.6 4 95
00 19.02 Ю 3 10 км в посл. час ливневой снег 9/9 300 м
[Sc]
-8.8 -10.7 86 -15 -14 1008.6 1005.3
03 19.02 Ю 4 4000 м слаб. ливневой снег 10/10 300 м
[Cb cap]
-7.8 -9.5 88 -15 -15 1009.1 1005.8
06 19.02 Ю 3 10 км {ливн. осадки} 6/6 600 м
[Sc]
-9.4 -11.9 82 -15 -15 1009.4 1006.2
09 19.02 ЮВ 2 10 км {ливн. осадки} 6/6 600 м
[Sc]
-12.8 -14.4 88 -17 -17 1010.5 1007.2 -6.8
12 19.02 ЮВ 2 4000 м слаб. ливневой снег 8/8 300 м
[Cb cap]
-12.0 -13.5 89 -17 -17 1010.6 1007.3
15 19.02 ЮВ 3 4000 м слаб. ливневой снег 8/8 300 м
[Cb cap]
-12.2 -13.8 88 -18 -18 1010.5 1007.2
18 19.02 ЮВ 3 4000 м слаб. ливневой снег 8/8 300 м
[Cb cap]
-12.0 -13.5 89 -18 -18 1010.4 1007.1
21 19.02 ЮВ 2 4000 м слаб. ливневой снег 8/8 300 м
[Cb cap]
-12.6 -14.3 87 -17 -17 1010.8 1007.5 -14.4 1 97
00 20.02 ЮВ 3 4000 м слаб. ливневой снег 10/10 300 м
[Cb cap]
-10.1 -12.3 84 -16 -16 1011.2 1007.9
03 20.02 Ю 3 20 км {ливн. осадки} 4/4 600 м
[Sc]
-7.3 -12.6 66 -13 -11 1010.6 1007.4
06 20.02 ЮВ 1 20 км {ливн. осадки} 3/3 600 м
[Sc]
-10.0 -14.2 71 -12 -12 1010.4 1007.1
09 20.02 СВ 1 20 км 3/0
[Ac trans]
-23.0 -25.7 78 -26 -26 1011.4 1007.9 -6.9 0.4
12 20.02 СВ 1 20 км ясно -26.8 -30.2 73 -31 -31 опасность
обморожения
1011.6 1008.1
15 20.02 СВ 2 20 км 6/0
[Ac As]
-21.7 -24.4 79 -28 -28 1011.2 1007.8
18 20.02 СВ 1 20 км 6/0
[Ac As]
-22.1 -24.9 78 -25 -25 1010.6 1007.2
21 20.02 В 1 50 км 8/0
[Ac As]
-21.3 -24.1 78 -24 -24 1010.1 1006.7 -27.9 96
00 21.02 штиль 0 50 км 3/0
[Ac trans]
-13.3 -16.9 74 -13 -10 1009.6 1006.3
03 21.02 СЗ 3 50 км 8/0
[Ac As]
-11.4 -19.2 52 -17 -16 1008.3 1005.0
06 21.02 СЗ 2 50 км 3/0
[Ci fib]
-12.7 -17.1 70 -17 -17 1007.7 1004.4
09 21.02 штиль 0 20 км 3/0
[Ci fib]
-22.7 -25.4 79 -23 -23 1008.1 1004.7 -7.8
12 21.02 В 1 20 км 3/0
[Ci fib]
-30.9 -34.8 68 -35 -35 опасность
обморожения
1008.2 1004.7
15 21.02 штиль 0 20 км 3/0
[Ci fib]
-32.8 -36.8 67 -33 -33 опасность
обморожения
1007.7 1004.1
18 21.02 СВ 2 20 км 4/0
[Ci fib]
-26.1 -29.5 73 -33 -33 опасность
обморожения
1007.4 1003.9
21 21.02 В 2 20 км 3/0
[Ci fib]
-27.9 -31.7 70 -35 -35 опасность
обморожения
1007.3 1003.8 -32.9 91
00 22.02 штиль 0 50 км 3/0
[Ci fib]
-16.5 -18.9 82 -17 -12 1006.6 1003.3
03 22.02 З 1 50 км 3/0
[Ci fib]
-13.1 -20.2 55 -15 -11 1005.5 1002.2
06 22.02 С 2 50 км 3/0
[Ci fib]
-14.2 -21.0 56 -19 -19 1004.6 1001.3
09 22.02 штиль 0 20 км ясно -24.6 -27.6 76 -25 -25 1004.8 1001.3 -11.4
12 22.02 СВ 1 20 км ясно -30.5 -34.4 69 -35 -35 опасность
обморожения
1004.1 1000.6
15 22.02 СВ 2 20 км ясно -31.6 -35.8 66 -39 -39 опасность
обморожения
1003.3 999.8
18 22.02 СВ 2 20 км ясно -34.6 -39.0 64 -43 -43 опасность
обморожения
1002.1 998.5
21 22.02 СВ 2 50 км 1/0
[Ci fib]
-31.6 -35.4 69 -39 -39 опасность
обморожения
1002.1 998.5 -35.2 90
00 23.02 штиль 0 50 км 1/0
[Ci fib]
-17.5 -19.8 82 -18 -13 1001.0 997.7
03 23.02 ЮВ 1 50 км 3/0
[Ci fib]
-13.1 -21.8 48 -15 -11 999.5 996.3
06 23.02 СЗ 1 50 км 3/0
[Ci fib]
-13.6 -22.3 48 -16 -16 999.4 996.1
09 23.02 В 1 20 км 3/0
[Ci fib]
-25.3 -28.3 76 -29 -29 1000.0 996.6 -11.1
12 23.02 СВ 1 20 км 3/0
[Ci fib]
-31.0 -35.0 68 -35 -35 опасность
обморожения
1000.6 997.1
15 23.02 СВ 2 20 км 3/0
[Cs]
-30.0 -33.8 69 -37 -37 опасность
обморожения
1000.7 997.1
18 23.02 СВ 1 20 км 3/0
[Ci fib]
-35.2 -39.7 63 -40 -40 опасность
обморожения
1000.9 997.3
21 23.02 СВ 1 50 км ясно -35.7 -40.2 63 -40 -40 опасность
обморожения
1000.9 997.3 -36.1 90
00 24.02 В 1 50 км ясно -19.0 -23.3 69 -22 -18 1000.4 997.0

 

Местоположение метеостанции Соболево (Камчатский край, Россия): широта 54.30 долгота 155.90 высота над уровнем моря 25 м.

В архиве по умолчанию представлена погода в Соболево за последнюю неделю. Архивные данные за месяц целиком и за предыдущие месяцы, начиная с января 2011 года, Вы можете получить, выбрав интересующий диапазон дат из раскрывающегося списка и нажав кнопку "Ввод!".


*Определитесь, кто Вы:
робот инопланетянин человек

Внимание! Время в таблицах - всемирное. Для получения местного времени необходимо прибавить поправку, которая равна 12 ч.

Смотрите также архив погоды в соседних городах и на ближайших метеорологических станциях:

Погода в Пущино (Камчатский край, Россия) (137 км)
Погода в Иче (Камчатский край, Россия) (145 км)
Погода в Большерецке (Камчатский край, Россия) (166 км)
Погода в Мильково (Камчатский край, Россия) (173 км)
Погода в Начиках (Камчатский край, Россия) (177 км)
Погода в Сосновке (Камчатский край, Россия) (208 км)
Погода в Петропавловск-Камч. 2 (Камчатский край, Россия) (218 км)
Погода в Долиновке (Камчатский край, Россия) (219 км)
Погода в Петропавловск-Камчатском (Камчатский край, Россия) (239 км)
Погода в Петропавловском Маяке (Камчатский край, Россия) (243 км)

Пояснения к столбцам:

Ветер - указаны скорость ветра в м/с - средняя за 10 мин, порывы в срок и между сроками (в фигурных скобках) и направление, откуда дует ветер: С - северный, СВ - северо-восточный, В - восточный, ЮВ - юго-восточный, Ю - южный, ЮЗ - юго-западный, З - западный, СЗ - северо-западный.
Видимость - горизонтальная дальность видимости в метрах или километрах. При видимости от 1 до 10 км при отсутствии осадков обычно наблюдается дымка, при ухудшении видимости до 1 км и менее - туман. В сухую погоду видимость может ухудшаться дымом, пылью или мглою.
Явления - указаны атмосферные явления, наблюдавшиеся в срок или в последний час перед сроком; фигурными скобками обозначены явления, наблюдавшиеся между сроками (за 1-3 часа до срока); квадратными скобками обозначены град или гололедные отложения с указанием их диаметра в мм.
Облачность - указаны через наклонную черту общая и нижняя облачность в баллах и высота нижней границы облаков в метрах; квадратными скобками обозначены формы облаков: Ci - перистые, Cs - перисто-слоистые, Cc - перисто-кучевые, Ac - высококучевые, As - высокослоистые, Sc - слоисто-кучевые, Ns - слоисто-дождевые, Cu - кучевые, Cb - кучево-дождевые. Подробнее классификацию облаков см. в Атласе облаков (PDF).
T - Температура воздуха - температура, измеренная на высоте 2 м над землей.
Td - Температура точки росы - температура, при понижении до которой содержащийся в воздухе водяной пар достигнет насыщения.
f - Относительная влажность воздуха - влажноcть воздуха, измеренная на высоте 2 м над землей.
Te - Эффективная температура - температура, которую ощущает одетый по сезону человек в тени. Характеристика душности погоды. При расчете учитывается влияние влажности воздуха и скорости ветра на теплоощущения человека.
Tes - Эффективная температура на солнце - температура, которую ощущает человек, с поправкой на солнечный нагрев. Характеристика знойности погоды. Зависит от высоты солнца над горизонтом, облачности и скорости ветра. Ночью, в пасмурную погоду, а также при ветре 12 м/с и более поправка равна нулю.
P - Атмосферное давление - приведенное к уровню моря атмосферное давление.
Po - Атмосферное давление - измеренное на уровне метеостанции атмосферное давление.
Tmin - Минимальная температура - минимум температуры воздуха на высоте 2 м над землей.
Tmax - Максимальная температура - максимум температуры воздуха на высоте 2 м над землей.
R - Количество осадков - Количество выпавших осадков за период времени, мм. При наведении курсора мыши на число - период времени, за который выпало указанное количество осадков.
R24 - Количество осадков - Количество выпавших осадков за 24 часа, мм.
S - Снежный покров - Высота снежного покрова, см. При наведении курсора мыши на число - состояние снежного покрова и степень покрытия местности в баллах.